Terminal Aerodrome Forecast
Issued by NWS Detroit/Pontiac, MI

Home | Current Version | Previous Version | Text Only | Print | Product List | Glossary On
Versions: 1 2 3 4 5 6 7 8 9 10 11 12 13 14 15 16 17 18 19 20 21 22 23 24 25 26 27
000
FTUS43 KDTX 290827 AAA
TAFDTW
TAF AMD
KDTW 290827Z 2908/3012 16004KT P6SM SCT100 BKN150 OVC200
     FM291700 16005KT P6SM SCT050 OVC120
     FM292100 16005KT P6SM BKN050 OVC120
      TEMPO 2922/3002 4SM -SHRA SCT030 BKN050=

USA.gov is the U.S. government's official web portal to all federal, state and local government web resources and services.